Temperature
3 3 3 3 3 4 4 4 5 5 5 5 5 5 6 6 6 6 6 6 6 6 6 7 7 7 7 7 7 7 7 7 7 8 8 8 9 9 9 9 10 10 10
2 2 3 3 3 3 3 4 4 4 4 4 5 5 5 5 5 5 5 6 6 6 6 6 6 6 6 7 7 6 6 6 7 7 7 7 8 8 9 9 9 9 9
1 2 2 2 3 3 3 3 3 4 4 4 4 4 4 4 5 5 5 5 5 5 6 6 6 6 6 6 6 6 6 6 6 6 6 6 7 7 8 9 9 9 9
1 1 2 2 2 2 3 3 3 3 3 3 3 3 3 4 4 4 4 4 5 5 5 5 5 5 5 6 6 6 6 6 6 6 6 6 7 7 7 8 8 8 9
1 1 1 1 2 2 2 2 2 2 3 3 3 3 3 3 3 3 3 4 4 4 4 5 4 5 5 5 5 5 5 5 5 6 6 6 6 6 6 7 8 8 8
0 1 1 1 1 2 2 2 2 2 2 2 2 2 2 2 2 3 3 3 3 3 4 4 4 4 4 5 5 5 5 5 5 5 5 5 6 6 6 6 7 7 8
-0 0 0 1 1 1 1 1 1 1 2 2 2 2 2 2 2 2 2 2 3 3 3 3 3 4 4 4 4 4 4 4 4 5 5 5 5 6 6 6 6 6 7
-1 -0 -0 -0 0 0 0 1 1 1 1 1 1 1 1 1 1 1 2 2 2 2 2 3 3 3 3 3 4 4 4 4 4 4 4 4 5 5 5 6 6 6 6
-1 -1 -0 -0 -0 -0 -0 -0 0 0 1 1 1 1 1 1 1 1 1 1 1 2 2 2 2 3 3 3 3 3 4 4 4 4 4 4 4 4 5 5 5 5 5
-1 -1 -1 -1 -1 -1 -1 -0 -0 -0 -0 0 0 0 0 1 1 1 1 1 1 1 1 2 2 2 2 2 3 3 3 3 4 4 4 4 4 4 4 4 5 5 5
-2 -2 -2 -1 -1 -1 -1 -1 -1 -1 -1 -1 -1 -0 -0 0 0 0 0 0 0 1 1 1 1 2 2 2 2 2 3 3 3 3 3 4 4 4 4 4 4 4 5
-2 -2 -2 -2 -2 -2 -2 -1 -1 -1 -1 -1 -1 -1 -1 -1 -0 -0 -0 -0 0 0 0 1 1 1 1 2 2 2 2 2 3 3 3 3 3 4 4 4 4 4 4
-2 -2 -2 -2 -2 -2 -2 -2 -2 -2 -2 -2 -2 -1 -1 -1 -1 -1 -1 -1 -0 -0 0 0 0 0 1 1 1 2 2 2 2 2 2 3 3 3 3 3 4 4 4
-2 -3 -3 -3 -3 -3 -3 -3 -3 -3 -2 -2 -2 -2 -2 -2 -2 -1 -1 -1 -1 -1 -0 -0 -0 -0 0 1 1 1 1 2 2 2 2 2 2 2 3 3 3 3 4
-3 -3 -3 -3 -3 -3 -3 -3 -3 -3 -3 -3 -3 -2 -2 -2 -2 -2 -2 -2 -2 -2 -1 -1 -1 -1 -0 -0 0 0 1 1 1 2 2 2 2 2 2 2 3 3 3
-3 -4 -4 -4 -4 -4 -4 -4 -4 -4 -4 -3 -3 -3 -3 -3 -3 -3 -3 -3 -2 -2 -2 -2 -1 -1 -1 -1 -0 -0 0 1 1 1 1 1 1 2 2 2 2 2 3
-4 -4 -4 -4 -5 -5 -5 -5 -5 -5 -4 -4 -4 -4 -4 -4 -4 -3 -3 -3 -3 -3 -2 -2 -2 -2 -1 -1 -1 -1 -0 0 0 1 1 1 1 1 1 1 1 2 2
-5 -5 -5 -5 -5 -5 -5 -5 -5 -5 -5 -5 -4 -5 -5 -5 -4 -4 -4 -4 -4 -4 -3 -3 -2 -2 -2 -2 -2 -1 -1 -1 -0 -0 -0 0 0 0 0 0 1 1 1
-5 -5 -5 -5 -6 -6 -6 -6 -6 -6 -5 -5 -5 -5 -5 -5 -5 -5 -5 -4 -4 -4 -4 -4 -3 -3 -3 -2 -2 -2 -2 -2 -1 -1 -1 -1 -1 -0 -0 -0 -0 0 1
-5 -6 -6 -6 -6 -6 -6 -6 -6 -6 -6 -6 -6 -6 -6 -6 -6 -5 -5 -5 -5 -5 -4 -4 -4 -3 -3 -3 -3 -3 -3 -2 -2 -2 -2 -2 -2 -1 -1 -1 -1 -1 -0
-6 -6 -6 -6 -7 -7 -7 -7 -6 -6 -7 -7 -7 -6 -6 -6 -6 -6 -6 -6 -6 -5 -5 -5 -4 -4 -4 -4 -4 -3 -3 -3 -3 -3 -2 -2 -2 -2 -2 -2 -1 -1 -1
-6 -7 -7 -7 -7 -7 -7 -7 -7 -7 -7 -7 -7 -7 -7 -7 -7 -7 -7 -6 -6 -6 -6 -5 -5 -5 -4 -4 -4 -4 -4 -4 -4 -3 -3 -3 -3 -3 -2 -2 -2 -2 -2
-7 -7 -7 -7 -7 -8 -8 -8 -7 -7 -7 -8 -8 -8 -8 -8 -7 -7 -7 -7 -7 -7 -6 -6 -6 -5 -5 -5 -5 -4 -4 -4 -4 -4 -4 -4 -3 -3 -3 -3 -3 -2 -2
-8 -8 -8 -8 -8 -8 -8 -8 -8 -8 -8 -8 -8 -8 -8 -8 -8 -8 -8 -8 -8 -7 -7 -7 -7 -6 -6 -6 -5 -5 -5 -5 -5 -4 -4 -4 -4 -4 -4 -3 -3 -3 -3
-8 -8 -8 -8 -8 -8 -8 -8 -8 -8 -8 -8 -8 -8 -8 -8 -8 -8 -8 -8 -8 -8 -8 -8 -7 -7 -7 -6 -6 -6 -6 -5 -5 -5 -5 -5 -5 -4 -4 -4 -4 -4 -4
-9 -9 -9 -9 -9 -9 -9 -9 -9 -9 -9 -9 -9 -9 -9 -9 -9 -8 -8 -8 -8 -8 -8 -8 -8 -8 -7 -7 -7 -6 -6 -6 -6 -5 -5 -5 -5 -5 -5 -5 -5 -5 -4
Wind_Speed
5 3 3 3 3 3 3 2 3 3 2 1 1 1 1 1 1 1 1 1 1 2 2 1 1 1 2 3 2 1 1 0 0 0 1 2 2 3 3 3 3 3 4
5 4 3 3 3 3 3 3 3 4 2 1 2 2 2 2 2 2 2 2 2 2 2 1 1 2 2 3 2 2 1 1 1 1 1 1 2 2 3 3 3 3 3
4 4 4 4 4 3 3 3 4 4 3 2 1 1 1 1 2 2 2 2 3 2 2 3 2 2 3 4 4 4 3 2 2 2 2 2 3 2 2 3 3 3 3
3 3 3 4 4 4 4 4 4 4 3 2 1 2 2 3 4 3 3 3 3 3 3 3 3 3 3 4 5 4 3 4 4 2 2 2 2 2 2 2 3 4 4
2 3 3 3 4 4 3 3 4 4 4 3 2 2 3 4 3 3 4 4 4 4 4 4 4 3 3 4 5 5 4 4 4 3 2 1 1 2 2 3 3 2 4
3 3 3 3 4 4 4 4 4 5 5 4 3 2 4 5 4 4 4 4 4 4 4 5 5 4 4 4 6 6 6 6 5 4 3 3 3 3 3 3 4 4 3
4 4 4 4 4 5 5 5 5 6 5 5 4 3 4 5 5 5 5 5 4 4 5 5 5 5 5 5 5 6 7 7 7 6 5 4 4 3 3 3 3 3 3
4 4 4 4 4 5 5 5 5 6 6 5 5 4 4 4 4 5 5 5 6 6 6 6 7 7 6 6 6 6 7 7 8 8 7 5 5 4 3 4 3 3 3
6 5 5 4 5 5 5 5 6 7 7 6 6 5 4 4 5 5 5 5 5 6 7 6 7 7 7 7 7 6 8 7 8 8 8 7 5 5 4 4 5 5 4
7 6 5 5 5 5 6 6 6 6 7 7 6 6 5 5 5 5 5 6 6 6 6 6 7 7 7 7 7 7 7 8 8 7 8 8 6 6 5 6 5 5 5
7 7 6 6 6 6 6 6 6 7 7 7 6 6 6 6 5 5 6 6 6 6 6 6 6 7 7 7 7 8 8 9 9 8 8 9 7 6 6 6 6 6 5
7 7 7 7 6 7 7 7 7 7 7 7 7 6 6 6 5 6 6 6 6 5 5 5 6 6 6 6 7 8 8 9 9 9 8 8 6 7 6 6 7 7 6
7 7 7 7 7 7 7 7 7 7 7 7 7 7 7 7 6 6 6 6 6 5 5 5 6 6 6 6 7 7 8 9 9 9 9 8 7 8 6 6 7 6 6
8 8 8 8 8 7 7 8 8 7 7 7 7 7 7 7 7 6 6 5 6 5 5 6 6 6 6 6 7 7 7 8 8 8 8 8 9 9 8 7 7 7 6
8 8 8 8 8 8 8 8 8 8 7 7 7 8 8 7 7 6 6 6 5 6 6 6 6 5 5 6 7 7 7 7 8 8 7 7 8 9 8 7 7 7 7
9 8 9 8 9 8 8 8 8 8 7 7 8 8 8 7 7 7 6 6 6 6 6 6 6 6 6 7 8 7 6 6 7 8 7 7 7 7 8 9 9 9 8
9 9 9 8 8 8 8 8 9 8 7 8 8 8 8 8 7 7 6 6 6 5 6 6 6 6 7 8 8 9 5 5 6 6 6 6 5 6 5 7 7 8 9
8 8 8 9 8 8 8 8 8 7 8 8 8 8 8 8 8 7 6 6 5 5 5 5 5 6 7 8 8 8 5 5 5 5 6 6 5 5 6 6 6 6 6
7 7 7 7 8 8 8 8 8 8 8 8 8 8 7 8 8 7 7 6 5 5 5 5 5 5 6 8 8 8 5 5 5 5 5 5 5 6 6 6 6 6 5
6 6 6 6 7 8 7 7 8 8 8 9 8 8 7 8 8 7 7 6 5 5 5 5 4 4 5 7 7 7 5 5 5 5 5 6 6 6 6 6 6 7 6
7 6 6 6 7 8 7 7 8 8 9 8 8 8 8 7 7 7 6 6 5 4 4 5 5 4 5 7 7 7 4 4 5 4 4 4 6 6 6 6 6 7 5
6 6 6 8 8 7 7 8 8 9 8 8 8 8 8 7 6 6 6 5 4 4 4 4 5 4 4 6 6 7 6 5 4 4 3 4 5 6 6 5 5 5 4
7 6 6 8 8 7 6 8 9 8 8 8 8 8 8 7 6 6 5 5 3 3 4 4 4 4 4 4 6 7 6 5 4 3 3 4 4 4 3 4 4 3 3
7 6 7 8 9 9 8 8 8 8 7 8 8 8 7 7 6 5 4 4 3 3 4 4 4 4 4 4 3 3 3 4 4 3 2 2 2 2 3 2 2 2 2
7 6 7 8 10 9 9 8 7 7 7 7 7 7 6 6 6 5 4 4 4 4 4 4 4 4 4 5 5 4 3 2 2 2 1 0 1 0 1 1 1 1 1
6 7 8 8 9 9 9 8 6 6 6 7 7 5 5 5 5 5 5 7 6 8 7 7 6 5 6 6 6 6 5 4 3 1 1 1 1 1 1 1 1 1 1
Wind_Direction
290 308 319 326 332 337 344 336 333 319 322 278 246 244 259 257 273 303 296 297 289 298 313 326 296 193 189 196 182 182 178 192 80 16 330 309 263 232 226 220 208 212 208
310 319 328 341 335 332 333 335 333 324 318 284 247 231 245 247 253 281 295 282 278 276 276 298 271 242 198 192 188 172 181 221 192 166 169 277 285 254 234 219 210 214 208
281 304 319 332 333 329 323 323 325 322 319 324 316 307 284 296 272 264 267 288 270 261 266 265 246 255 210 202 202 191 185 204 233 214 177 183 228 259 257 230 217 208 206
285 304 312 325 322 309 319 330 326 326 329 343 329 260 258 257 261 252 254 276 265 256 254 259 243 239 235 210 209 200 205 192 213 235 236 229 199 203 253 257 231 215 213
279 290 297 307 320 322 320 323 326 331 335 340 310 273 263 258 268 261 255 256 263 259 255 255 244 231 240 222 209 210 210 201 212 217 221 245 266 225 221 244 244 247 232
305 301 323 344 343 348 344 340 330 331 333 332 315 285 272 267 267 266 256 253 252 253 259 261 248 236 239 237 221 210 212 214 215 221 213 209 211 216 223 235 242 249 249
319 326 337 340 339 343 337 337 334 327 327 328 320 298 276 266 257 257 255 255 254 252 250 261 253 243 243 245 239 218 217 217 217 220 223 222 228 219 227 235 244 262 274
322 321 320 319 324 328 328 328 323 320 323 321 313 310 287 274 266 260 256 254 251 249 252 254 254 248 247 247 242 231 224 220 222 228 226 229 230 221 223 221 222 250 269
321 320 326 327 325 320 316 313 317 318 316 313 310 313 301 283 275 269 261 257 261 260 253 252 255 248 245 244 240 234 230 225 224 229 229 230 232 224 224 224 216 214 239
323 325 326 323 317 311 312 316 316 311 310 312 311 307 305 286 277 275 273 269 265 267 256 250 256 250 242 241 237 239 235 227 228 230 230 231 231 225 222 223 226 225 227
319 319 319 317 316 319 319 316 315 314 313 312 309 307 303 296 283 279 275 273 266 263 258 252 255 251 241 239 237 237 237 233 231 231 233 234 232 227 224 223 223 227 226
312 314 314 318 321 321 320 317 313 311 309 308 308 307 308 309 294 284 282 278 271 266 262 255 256 254 244 239 238 240 239 234 231 232 234 236 235 234 229 226 228 229 225
314 317 317 316 314 315 315 313 311 309 311 313 312 314 315 310 302 291 285 282 274 271 272 261 255 252 249 245 242 240 239 236 231 230 233 232 229 235 235 231 230 232 231
310 312 312 312 310 312 313 313 312 314 315 315 313 313 309 303 299 297 293 282 273 268 265 259 258 254 253 253 249 243 243 242 235 235 232 227 227 231 232 234 232 231 228
312 310 310 312 313 314 315 314 313 316 316 315 313 308 306 304 304 303 302 296 284 270 264 261 256 256 255 256 251 243 245 244 243 238 231 231 235 237 233 236 230 224 222
306 309 311 312 312 311 310 311 311 313 315 312 308 308 307 305 304 302 301 299 295 283 269 261 256 256 260 272 272 264 246 246 247 243 236 237 238 245 246 249 244 233 224
306 308 310 308 307 307 305 305 306 310 312 309 307 307 306 306 305 303 303 299 293 288 283 266 257 256 265 273 271 270 257 246 248 249 241 241 244 247 242 249 251 245 243
301 304 308 309 310 308 308 307 308 308 307 307 307 307 307 308 307 304 302 296 287 282 282 281 271 267 274 275 270 267 257 246 247 249 244 240 240 241 240 236 237 236 239
292 294 297 300 306 309 310 310 310 309 309 306 306 307 308 308 308 305 302 297 287 283 281 281 278 278 289 291 281 270 251 249 253 254 251 247 240 256 253 238 236 240 243
302 302 306 308 309 310 312 310 309 309 305 304 305 307 309 307 306 303 301 296 285 282 287 290 286 279 283 295 295 283 255 251 255 257 252 252 252 255 255 239 229 233 240
305 308 309 309 306 310 313 309 307 303 302 306 308 310 311 306 301 301 302 300 293 292 290 293 295 286 286 292 295 295 270 249 250 255 255 252 259 254 258 258 241 238 237
312 314 313 311 312 313 312 308 304 305 309 310 310 310 311 308 307 306 305 302 296 295 292 295 300 295 290 295 292 297 293 282 257 257 257 259 262 259 261 260 258 248 237
309 312 310 311 313 312 309 303 303 309 312 313 311 310 310 310 310 307 304 305 300 288 293 294 298 303 300 298 301 297 297 295 280 271 276 286 277 271 266 270 259 243 217
308 311 314 313 313 315 312 301 302 309 310 310 310 310 310 311 311 306 303 299 298 291 290 293 296 302 303 299 291 277 280 289 283 284 293 302 312 301 299 292 264 237 225
309 311 309 307 309 314 313 308 307 310 310 309 310 310 308 307 310 305 297 293 282 275 279 281 281 289 295 299 306 303 283 268 264 285 313 310 279 298 304 292 298 279 239
308 313 311 312 313 316 316 315 314 312 309 310 311 309 309 310 311 311 312 312 306 308 302 298 295 296 298 301 306 314 318 316 310 303 281 281 276 277 285 293 308 313 272
Height
1506 1507 1507 1507 1507 1507 1506 1507 1507 1507 1507 1507 1507 1508 1508 1509 1510 1511 1512 1514 1515 1516 1517 1517 1519 1521 1522 1523 1524 1526 1527 1528 1530 1531 1530 1531 1533 1534 1535 1536 1537 1539 1541
1503 1503 1504 1504 1504 1504 1504 1504 1504 1504 1504 1504 1505 1505 1505 1506 1506 1508 1508 1510 1511 1512 1513 1514 1515 1517 1518 1520 1521 1523 1523 1525 1527 1528 1528 1529 1530 1530 1531 1533 1534 1536 1538
1500 1501 1501 1501 1500 1500 1501 1500 1501 1501 1501 1502 1502 1502 1503 1503 1503 1503 1504 1505 1507 1508 1509 1510 1511 1513 1514 1515 1517 1519 1520 1521 1524 1526 1527 1527 1526 1527 1528 1528 1530 1532 1534
1499 1499 1498 1498 1498 1498 1499 1499 1499 1499 1498 1498 1498 1499 1498 1498 1498 1499 1500 1501 1502 1503 1504 1506 1507 1508 1509 1511 1513 1514 1516 1518 1519 1521 1523 1525 1524 1525 1524 1525 1526 1528 1530
1497 1497 1497 1497 1497 1497 1497 1497 1496 1496 1495 1495 1495 1495 1495 1495 1495 1496 1496 1497 1497 1498 1499 1501 1502 1503 1504 1506 1508 1510 1512 1513 1515 1516 1518 1520 1521 1522 1522 1521 1521 1523 1526
1496 1495 1495 1495 1495 1495 1495 1495 1494 1493 1492 1492 1492 1492 1491 1491 1491 1491 1492 1492 1493 1493 1495 1496 1497 1498 1499 1501 1503 1504 1506 1508 1510 1512 1513 1515 1516 1517 1518 1518 1518 1519 1521
1494 1493 1493 1492 1492 1492 1492 1491 1490 1489 1489 1488 1488 1488 1488 1487 1487 1487 1487 1487 1488 1488 1489 1491 1492 1493 1494 1496 1497 1499 1501 1503 1505 1506 1508 1510 1512 1514 1515 1515 1515 1516 1516
1494 1492 1492 1492 1491 1490 1490 1489 1488 1486 1485 1485 1484 1483 1483 1483 1482 1482 1482 1482 1483 1483 1485 1485 1486 1487 1489 1491 1492 1494 1496 1498 1499 1501 1503 1505 1507 1509 1510 1511 1512 1512 1512
1493 1491 1491 1490 1489 1488 1488 1487 1485 1483 1482 1481 1480 1479 1479 1478 1478 1477 1478 1477 1477 1478 1479 1479 1480 1481 1483 1485 1486 1488 1490 1492 1494 1496 1497 1499 1501 1503 1505 1506 1508 1509 1508
1492 1491 1490 1489 1488 1487 1486 1484 1482 1481 1480 1478 1476 1475 1475 1474 1473 1473 1472 1471 1471 1472 1473 1473 1474 1475 1477 1479 1480 1482 1484 1486 1487 1490 1491 1493 1495 1497 1499 1501 1502 1503 1504
1492 1490 1489 1488 1487 1485 1483 1481 1480 1478 1477 1475 1473 1472 1470 1469 1468 1467 1467 1466 1466 1466 1466 1467 1468 1469 1470 1472 1474 1475 1477 1479 1481 1482 1484 1486 1488 1490 1492 1494 1495 1497 1498
1491 1489 1488 1486 1484 1482 1480 1478 1477 1475 1473 1471 1469 1467 1466 1464 1463 1462 1461 1461 1460 1461 1461 1461 1462 1463 1464 1465 1467 1468 1470 1472 1473 1475 1476 1478 1481 1483 1484 1486 1488 1490 1491
1490 1488 1486 1483 1481 1479 1477 1475 1473 1471 1469 1467 1465 1463 1461 1459 1458 1457 1456 1455 1455 1454 1455 1456 1456 1457 1457 1459 1460 1462 1463 1465 1466 1468 1469 1471 1474 1475 1477 1479 1481 1482 1484
1488 1486 1483 1481 1479 1477 1474 1472 1470 1468 1465 1463 1461 1458 1457 1455 1453 1452 1451 1450 1449 1449 1449 1449 1450 1450 1451 1453 1454 1455 1457 1458 1460 1461 1463 1464 1466 1468 1470 1471 1473 1475 1477
1486 1484 1481 1479 1476 1473 1471 1468 1466 1464 1461 1459 1456 1454 1452 1450 1448 1447 1445 1445 1444 1443 1443 1443 1444 1444 1445 1446 1448 1449 1450 1451 1452 1454 1456 1458 1459 1461 1463 1464 1466 1468 1469
1484 1482 1479 1476 1473 1470 1467 1465 1462 1459 1457 1454 1452 1450 1449 1447 1445 1442 1441 1439 1438 1438 1438 1438 1438 1438 1439 1440 1442 1443 1443 1444 1445 1446 1448 1450 1452 1454 1455 1457 1459 1460 1462
1482 1479 1476 1474 1471 1468 1465 1461 1458 1455 1453 1450 1448 1446 1444 1441 1439 1437 1435 1434 1433 1433 1432 1432 1432 1432 1433 1435 1436 1436 1437 1438 1439 1440 1442 1443 1445 1446 1448 1450 1451 1453 1454
1478 1476 1473 1470 1467 1464 1461 1458 1454 1451 1448 1446 1444 1441 1439 1436 1434 1432 1430 1429 1429 1428 1427 1426 1427 1427 1427 1429 1430 1431 1431 1432 1433 1434 1435 1437 1438 1439 1441 1442 1443 1445 1447
1476 1473 1470 1467 1463 1460 1457 1454 1450 1447 1444 1442 1439 1437 1434 1432 1430 1427 1425 1424 1424 1423 1422 1421 1421 1421 1421 1423 1424 1425 1426 1425 1426 1428 1430 1431 1431 1433 1435 1436 1437 1438 1440
1472 1469 1466 1463 1460 1457 1453 1450 1446 1443 1440 1438 1435 1433 1430 1428 1425 1423 1421 1420 1419 1418 1417 1416 1416 1416 1416 1417 1418 1419 1419 1419 1421 1422 1424 1425 1426 1427 1429 1430 1431 1431 1433
1469 1466 1463 1459 1456 1453 1450 1446 1443 1440 1437 1434 1431 1429 1426 1424 1421 1419 1417 1416 1414 1413 1413 1412 1411 1411 1411 1412 1413 1413 1414 1415 1415 1416 1417 1419 1421 1421 1423 1425 1426 1426 1429
1465 1462 1459 1455 1453 1450 1446 1442 1439 1436 1433 1430 1427 1425 1422 1420 1418 1415 1413 1412 1410 1409 1408 1407 1406 1407 1407 1408 1408 1409 1410 1410 1411 1411 1413 1414 1415 1416 1417 1419 1420 1423 1424
1462 1459 1455 1452 1449 1446 1443 1439 1436 1433 1430 1427 1424 1421 1418 1416 1414 1412 1410 1408 1406 1405 1404 1403 1402 1402 1403 1403 1404 1404 1405 1406 1407 1408 1409 1410 1411 1412 1412 1414 1416 1417 1419
1458 1455 1452 1448 1445 1442 1439 1436 1433 1430 1427 1423 1420 1417 1415 1413 1411 1409 1407 1405 1403 1402 1401 1400 1399 1398 1399 1399 1399 1400 1401 1402 1403 1404 1405 1406 1407 1407 1408 1409 1411 1412 1414
1455 1452 1449 1445 1441 1438 1435 1432 1429 1426 1423 1420 1417 1414 1412 1409 1407 1405 1404 1402 1401 1400 1399 1398 1397 1396 1395 1396 1397 1397 1398 1398 1399 1400 1401 1402 1402 1403 1403 1405 1406 1408 1409
1452 1449 1445 1442 1438 1434 1431 1428 1426 1423 1420 1417 1414 1411 1409 1407 1404 1402 1401 1399 1399 1397 1397 1396 1395 1394 1394 1393 1394 1395 1395 1396 1397 1397 1397 1397 1398 1398 1399 1400 1402 1403 1405